パンスターズ彗星

C/2017 S2 ( PanSTARRS )

English version
Home page
Updated on January 8, 2018

---------------------------------------------------------------------

・ プロフィール

発見日 2017年9月16日
発見光度 20.9等
発見者 Pan-STARRS 1 telescope (Haleakala)

・ 写真集

・ 軌道要素

Epoch 2017 Sept. 4.0 TT = JDT 2458000.5
T 2017 Aug. 29.29687 TT                                 MPCW
q   3.6143479            (2000.0)            P               Q
n   0.01067258     Peri.  305.96180     +0.97178635     -0.13324499
a  20.4310118      Node    62.43028     +0.21297645     +0.85028843
e   0.8230950      Incl.   12.68264     -0.10135244     +0.50917125
P  92.35
From 57 observations 2017 Aug. 22-Nov. 17, mean residual 0".3.

・ 光度変化

        m1 = 12.5 + 5 logΔ + 10.0 log r

---------------------------------------------------------------------

軌道要素はM.P.E.C. 2017-X08に掲載されたものです。
光度グラフはComet for Windowsで作成したものです。

---------------------------------------------------------------------

Copyright(C) Seiichi Yoshida (comet@aerith.net). All rights reserved.